BEIJING 1 1 28890U 05043A 25308.54604157 .00000456 00000+0 97663-4 0 9998 2 28890 98.2625 75.9704 0013413 264.1430 95.8243 14.63308740 67791 HUANJING 1A (HJ-1A) 1 33320U 08041A 25308.51465810 .00001531 00000+0 19307-3 0 9994 2 33320 97.6521 298.4186 0019876 151.8211 208.4084 14.83213937925093 HUANJING 1B (HJ-1B) 1 33321U 08041B 25308.52629691 .00001282 00000+0 16366-3 0 9990 2 33321 97.6386 302.2242 0036145 198.4636 161.5269 14.82673604925113 YAOGAN-4 1 33446U 08061A 25308.40406829 .00001461 00000+0 18822-3 0 9991 2 33446 97.9128 238.8963 0016053 83.0735 277.2303 14.82499006912355 DEIMOS-1 1 35681U 09041A 25308.51910715 .00000795 00000+0 12558-3 0 9998 2 35681 97.7139 110.9074 0001594 141.4917 218.6407 14.74861109873769 UK-DMC 2 1 35683U 09041C 25308.53318186 .00001170 00000+0 17911-3 0 9992 2 35683 97.8537 84.5254 0001064 87.6137 272.5194 14.75490795873433 DMC3-FM1 1 40715U 15032A 25308.57450786 .00000899 00000+0 11049-3 0 9991 2 40715 97.6735 177.1512 0007092 76.1891 284.0114 14.85336529556563 DMC3-FM2 1 40716U 15032B 25308.52965620 .00000891 00000+0 10964-3 0 9992 2 40716 97.6786 178.5249 0007710 80.7291 279.4796 14.85318380556552 DMC3-FM3 1 40717U 15032C 25308.48384550 .00000935 00000+0 11474-3 0 9991 2 40717 97.6845 180.0883 0006960 81.2377 278.9626 14.85337718556550